Date String (YYYY-MM-DD hh:mm:ss) UTC,Instrument flags,Ambient pressure (hPa),Sample flow (lpm),Bypass flow (lpm),Sample temperature (°C),Ambient temperature (°C),ASC tube jacket temperature (°C),LED temperature (°C),Box temperature (°C),Sample RH (%),Span deviation,Mass concentration (μg/m³),Mass concentration (μg/m³),Mass concentration (μg/m³)
DateTimeUTC,F1_M11,P_M11,Q1_M11,Q2_M11,T1_M11,T2_M11,T3_M11,T4_M11,T5_M11,U1_M11,ZSPAN_M11,X0_M11,X2_M11,X1_M11
2022-04-13 17:00:00,,0818.9,5.00,0.00,22.0,21.1,00.0,30.9,23.6,04.8,0000.0,0003.85,0001.31,0000.76
2022-04-13 17:01:00,,0818.9,5.00,0.00,21.9,21.0,00.0,30.9,23.6,04.4,0000.0,0003.92,0001.35,0000.75
2022-04-13 17:02:00,,0818.9,5.01,0.00,21.9,20.9,00.0,30.9,23.6,04.4,0000.0,0004.53,0001.35,0000.75
2022-04-13 17:03:00,,0818.9,5.00,0.00,21.9,20.9,00.0,30.9,23.5,04.4,0000.0,0004.45,0001.31,0000.75
2022-04-13 17:04:00,,0819.0,5.00,0.00,21.9,20.8,00.0,30.9,23.5,04.4,0000.0,0004.67,0001.35,0000.75
2022-04-13 17:05:00,,0818.9,5.00,0.00,21.8,20.8,00.0,30.9,23.4,04.5,0000.0,0004.79,0001.38,0000.75
2022-04-13 17:06:00,,0818.9,5.00,0.00,21.8,20.8,00.0,30.9,23.4,04.6,0000.0,0004.65,0001.36,0000.74
2022-04-13 17:07:00,,0818.9,4.99,0.00,21.8,20.9,00.0,30.9,23.4,04.8,0000.0,0003.72,0001.28,0000.73
2022-04-13 17:08:00,,0818.8,5.00,0.00,21.8,20.9,00.0,30.9,23.4,04.9,0000.0,0003.68,0001.29,0000.73
2022-04-13 17:09:00,,0818.8,5.00,0.00,21.8,20.9,00.0,30.8,23.5,04.6,0000.0,0003.75,0001.27,0000.73
2022-04-13 17:10:00,,0818.8,5.00,0.00,21.8,20.9,00.0,30.8,23.4,04.7,0000.0,0003.84,0001.28,0000.72
2022-04-13 17:11:00,,0818.8,5.01,0.00,21.9,21.6,00.0,30.9,23.6,04.6,0000.0,0003.79,0001.26,0000.71
2022-04-13 17:12:00,,0818.8,5.00,0.00,22.0,22.8,00.0,30.9,24.0,04.5,0000.0,0003.58,0001.21,0000.71
2022-04-13 17:13:00,,0818.7,4.99,0.00,22.2,23.2,00.0,31.0,24.2,04.5,0000.0,0003.01,0001.21,0000.72
2022-04-13 17:14:00,,0818.7,5.01,0.00,22.2,23.0,00.0,31.0,24.1,04.5,0000.0,0002.95,0001.23,0000.73
2022-04-13 17:15:00,,0818.8,4.99,0.00,22.2,22.7,00.0,31.0,24.1,04.6,0000.0,0002.67,0001.13,0000.72
2022-04-13 17:16:00,,0818.8,4.99,0.00,22.2,22.4,00.0,31.0,24.1,04.6,0000.0,0002.70,0001.14,0000.71
2022-04-13 17:17:00,,0818.8,5.01,0.00,22.2,22.2,00.0,31.1,24.0,04.6,0000.0,0002.82,0001.17,0000.71
2022-04-13 17:18:00,,0818.8,4.99,0.00,22.2,22.0,00.0,31.1,24.0,04.6,0000.0,0005.23,0001.35,0000.73
2022-04-13 17:19:00,,0818.8,5.00,0.00,22.2,21.8,00.0,31.1,23.9,04.3,0000.0,0005.39,0001.35,0000.73
2022-04-13 17:20:00,,0818.8,4.99,0.00,22.1,21.6,00.0,31.1,23.8,04.0,0000.0,0005.29,0001.34,0000.72
2022-04-13 17:21:00,,0818.7,5.00,0.00,22.1,21.5,00.0,31.1,23.8,04.0,0000.0,0005.22,0001.31,0000.71
2022-04-13 17:22:00,,0818.5,5.01,0.00,22.1,21.4,00.0,31.1,23.8,04.0,0000.0,0005.29,0001.31,0000.71
2022-04-13 17:23:00,,0818.4,5.00,0.00,22.1,21.3,00.0,31.1,23.8,04.1,0000.0,0005.53,0001.38,0000.71
2022-04-13 17:24:00,,0818.4,5.00,0.00,22.1,21.2,00.0,31.0,23.8,04.1,0000.0,0005.76,0001.42,0000.71
2022-04-13 17:25:00,,0818.6,5.00,0.00,22.0,21.1,00.0,31.0,23.7,04.0,0000.0,0005.76,0001.41,0000.70
2022-04-13 17:26:00,,0818.8,5.00,0.00,22.0,21.0,00.0,31.0,23.5,04.0,0000.0,0005.86,0001.46,0000.71
2022-04-13 17:27:00,,0818.7,5.01,0.00,22.0,21.0,00.0,31.0,23.5,04.1,0000.0,0005.66,0001.43,0000.71
2022-04-13 17:28:00,,0818.6,5.01,0.00,22.0,21.0,00.0,31.0,23.5,04.1,0000.0,0005.45,0001.35,0000.69
2022-04-13 17:29:00,,0818.6,4.99,0.00,21.9,20.9,00.0,31.0,23.5,04.0,0000.0,0003.75,0001.21,0000.67
2022-04-13 17:30:00,,0818.8,5.00,0.00,21.9,20.9,00.0,31.0,23.5,04.0,0000.0,0002.42,0001.13,0000.66
2022-04-13 17:31:00,,0818.7,4.99,0.00,21.9,20.9,00.0,31.0,23.4,04.0,0000.0,0002.34,0001.12,0000.66
2022-04-13 17:32:00,,0818.7,5.02,0.00,21.9,20.9,00.0,30.9,23.4,04.0,0000.0,0002.25,0001.11,0000.66
2022-04-13 17:33:00,,0818.7,5.00,0.00,21.8,20.8,00.0,30.9,23.4,04.1,0000.0,0002.12,0001.09,0000.66
2022-04-13 17:34:00,,0818.7,4.99,0.00,21.8,20.8,00.0,30.9,23.4,04.3,0000.0,0001.93,0001.05,0000.67
2022-04-13 17:35:00,,0818.8,5.00,0.00,21.9,21.6,00.0,31.0,23.6,04.2,0000.0,0001.94,0001.01,0000.67
2022-04-13 17:36:00,,0818.8,5.00,0.00,22.1,22.7,00.0,31.0,24.0,04.2,0000.0,0002.03,0001.01,0000.67
2022-04-13 17:37:00,,0818.8,5.02,0.00,22.2,23.6,00.0,31.1,24.3,04.2,0000.0,0002.13,0001.01,0000.66
2022-04-13 17:38:00,,0818.9,4.99,0.00,22.4,23.5,00.0,31.1,24.4,04.2,0000.0,0002.64,0001.05,0000.66
2022-04-13 17:39:00,,0818.7,5.01,0.00,22.4,23.2,00.0,31.1,24.3,04.1,0000.0,0003.08,0001.13,0000.66
2022-04-13 17:40:00,,0818.8,4.99,0.00,22.4,22.8,00.0,31.2,24.2,04.1,0000.0,0003.18,0001.17,0000.68
2022-04-13 17:41:00,,0818.8,4.99,0.00,22.3,22.5,00.0,31.2,24.1,04.2,0000.0,0003.31,0001.22,0000.70
2022-04-13 17:42:00,,0818.7,5.01,0.00,22.3,22.2,00.0,31.2,24.1,04.4,0000.0,0003.54,0001.25,0000.70
2022-04-13 17:43:00,,0818.8,5.01,0.00,22.3,21.9,00.0,31.2,24.0,04.5,0000.0,0005.06,0001.30,0000.71
2022-04-13 17:44:00,,0818.7,5.00,0.00,22.3,21.7,00.0,31.2,23.9,04.5,0000.0,0005.18,0001.35,0000.72
2022-04-13 17:45:00,,0818.8,4.99,0.00,22.2,21.6,00.0,31.2,23.9,04.5,0000.0,0005.29,0001.39,0000.73
2022-04-13 17:46:00,,0818.8,5.01,0.00,22.2,21.4,00.0,31.2,23.8,04.6,0000.0,0005.25,0001.41,0000.73
2022-04-13 17:47:00,,0818.9,5.00,0.00,22.2,21.4,00.0,31.2,23.8,04.5,0000.0,0005.06,0001.40,0000.72
2022-04-13 17:48:00,,0818.8,5.00,0.00,22.2,21.3,00.0,31.2,23.8,04.5,0000.0,0005.02,0001.43,0000.74
2022-04-13 17:49:00,,0818.8,5.00,0.00,22.1,21.3,00.0,31.2,23.8,04.6,0000.0,0004.76,0001.43,0000.74
2022-04-13 17:50:00,,0818.8,5.00,0.00,22.1,21.2,00.0,31.2,23.7,04.7,0000.0,0004.38,0001.41,0000.75
2022-04-13 17:51:00,,0818.8,4.99,0.00,22.1,21.1,00.0,31.1,23.6,04.8,0000.0,0004.29,0001.38,0000.74
2022-04-13 17:52:00,,0818.8,5.01,0.00,22.0,21.0,00.0,31.1,23.5,05.1,0000.0,0004.13,0001.30,0000.73
2022-04-13 17:53:00,,0818.8,5.00,0.00,22.0,20.9,00.0,31.1,23.6,05.5,0000.0,0004.15,0001.29,0000.72
2022-04-13 17:54:00,,0818.8,5.00,0.00,22.0,20.9,00.0,31.1,23.6,05.3,0000.0,0003.24,0001.27,0000.72
2022-04-13 17:55:00,,0818.8,4.99,0.00,21.9,20.9,00.0,31.1,23.5,05.3,0000.0,0002.90,0001.22,0000.71
2022-04-13 17:56:00,,0818.9,5.01,0.00,21.9,20.8,00.0,31.0,23.5,05.3,0000.0,0002.87,0001.18,0000.70
2022-04-13 17:57:00,,0818.8,5.01,0.00,21.9,20.8,00.0,31.0,23.5,05.3,0000.0,0003.02,0001.21,0000.70
2022-04-13 17:58:00,,0818.9,5.00,0.00,21.8,20.8,00.0,31.0,23.4,05.4,0000.0,0003.12,0001.22,0000.70
2022-04-13 17:59:00,,0818.9,5.00,0.00,21.8,20.8,00.0,31.0,23.4,05.4,0000.0,0003.46,0001.21,0000.70
